User: anonymous   Login
Location: Melbourne
(37.8170°S, 144.9670°E)
Time: 12:34:00
(UTC+10:00)
Language:

ADEOS Rocket - Orbit

View from above orbital plane
View from above orbital plane
View from above satellite
View from above satellite

Ground track
Ground track

The orbit data is extracted from the following two-line orbital elements,

1 24279U 96046C   17146.55829108 -.00000026 +00000-0 +14114-4 0  9990
2 24279 098.7517 093.1876 0299912 344.0754 138.1532 13.47084672021059
Epoch (UTC): 26 May 2017 13:23:56
Eccentricity: 0.0299912
inclination: 98.7517°
perigee height: 859 km
apogee height: 1307 km
right ascension of ascending node: 93.1876°
argument of perigee: 344.0754°
revolutions per day: 13.47084672
mean anomaly at epoch: 138.1532°
orbit number at epoch: 2105

The dashed part of the orbit path shows where the satellite is in the earth's shadow,  

DLR